Location: Newark
(34.6283°N, 36.0776°E)
Time: 01:31:13
(UTC+00:00)

A-11 Canister half - Pass Details

Date: 24 September 2019
Orbit: 1527 x 1682 km, 47.3° (Epoch: 13 October)

Event Time Altitude Azimuth Distance (km) Brightness Sun altitude
Rises 05:05:43 0° 300° (WNW) 4,747 11.0 19.7°
Reaches altitude 10° 05:08:56 10° 306° (NW) 3,782 10.6 20.3°
Maximum altitude 05:18:13 49° 20° (NNE) 1,998 10.0 22.2°
Drops below altitude 10° 05:27:46 10° 94° (E) 3,894 12.8 24.0°
Sets 05:31:08 0° 100° (E) 4,897 13.0 24.7°
